HARMALA Weather Reports


Display with metric or nautical units.
time (UTC)temp
F
wind
direction
speed
MPH
gust
MPH
rain 1hr
in
rain 24hr
in
rain mn
in
humidity
%
barometer
mb
20260509082736 56 0.0 0.0 0.00 0.00 0.00 26 1028.7
20260509080735 56 0.0 0.0 0.00 0.00 0.00 28 1028.9
20260509074736 55 0.0 0.0 0.00 0.00 0.00 30 1029.0
20260509073101 55 0.0 0.0 0.00 0.00 0.00 33 1029.0
20260509070736 55 0.0 0.0 0.00 0.00 0.00 33 1029.0
20260509064735 54 0.0 0.0 0.00 0.00 0.00 34 1029.0
20260509060735 52 0.0 0.0 0.00 0.00 0.00 40 1028.9
20260509054735 51 0.0 0.0 0.00 0.00 0.00 39 1029.0
20260509052735 51 0.0 0.0 0.00 0.00 0.00 40 1029.0
20260509050736 49 0.0 0.0 0.00 0.00 0.00 42 1029.0
20260509044735 47 0.0 0.0 0.00 0.00 0.00 52 1029.0
20260509042735 45 0.0 0.0 0.00 0.00 0.00 58 1029.1
20260509040734 43 0.0 0.0 0.00 0.00 0.00 64 1029.0
20260509034735 37 0.0 0.0 0.00 0.00 0.00 78 1029.1
20260509032734 32 0.0 0.0 0.00 0.00 0.00 87 1029.2
20260509030734 31 0.0 0.0 0.00 0.00 0.00 89 1029.2
20260509024735 30 0.0 0.0 0.00 0.00 0.00 89 1029.1
20260509022735 30 0.0 0.0 0.00 0.00 0.00 89 1029.1
20260509020735 30 0.0 0.0 0.00 0.00 0.00 87 1029.1
20260509014734 30 0.0 0.0 0.00 0.00 0.00 86 1029.1
20260509012734 30 0.0 0.0 0.00 0.00 0.00 84 1029.0
20260509010734 31 0.0 0.0 0.00 0.00 0.00 82 1028.9
20260509004734 31 0.0 0.0 0.00 0.00 0.00 82 1028.8
20260509002734 31 0.0 0.0 0.00 0.00 0.00 82 1028.7
20260509000736 32 0.0 0.0 0.00 0.00 0.00 80 1028.7
20260508234735 32 0.0 0.0 0.00 0.00 0.00 78 1028.7
20260508232734 33 0.0 0.0 0.00 0.00 0.00 77 1028.6
20260508230734 33 0.0 0.0 0.00 0.00 0.00 75 1028.6
20260508224734 34 0.0 0.0 0.00 0.00 0.00 74 1028.5
20260508222734 34 0.0 0.0 0.00 0.00 0.00 75 1028.5
20260508220734 36 0.0 0.0 0.00 0.00 0.00 70 1028.3
20260508214734 36 0.0 0.0 0.00 0.00 0.00 66 1028.3
20260508212734 37 0.0 0.0 0.00 0.00 0.00 66 1028.1
20260508210734 37 0.0 0.0 0.00 0.00 0.00 65 1028.1
20260508204733 38 0.0 0.0 0.00 0.00 0.00 62 1028.0
20260508202733 38 0.0 0.0 0.00 0.00 0.00 60 1027.9
20260508200734 40 0.0 0.0 0.00 0.00 0.00 57 1027.8
20260508194733 41 0.0 0.0 0.00 0.00 0.00 52 1027.6
20260508192733 43 0.0 0.0 0.00 0.00 0.00 48 1027.4
20260508190733 46 0.0 0.0 0.00 0.00 0.00 43 1027.1
20260508184733 47 0.0 0.0 0.00 0.00 0.00 40 1026.9
20260508182732 50 0.0 0.0 0.00 0.00 0.00 35 1026.8
20260508180732 53 0.0 0.0 0.00 0.00 0.00 28 1026.5
20260508174733 55 0.0 0.0 0.00 0.00 0.00 24 1026.4
20260508172732 56 0.0 0.0 0.00 0.00 0.00 21 1026.3
20260508170733 57 0.0 0.0 0.00 0.00 0.00 19 1026.1
20260508164731 57 0.0 0.0 0.00 0.00 0.00 18 1026.1
20260508162733 57 0.0 0.0 0.00 0.00 0.00 18 1026.0
20260508154732 58 0.0 0.0 0.00 0.00 0.00 19 1025.9
20260508152732 58 0.0 0.0 0.00 0.00 0.00 19 1025.9
20260508150732 58 0.0 0.0 0.00 0.00 0.00 19 1026.0
20260508144732 57 0.0 0.0 0.00 0.00 0.00 20 1026.0
20260508142732 57 0.0 0.0 0.00 0.00 0.00 21 1026.1
20260508140732 56 0.0 0.0 0.00 0.00 0.00 20 1026.1
20260508134733 58 0.0 0.0 0.00 0.00 0.00 21 1026.3
20260508132732 57 0.0 0.0 0.00 0.00 0.00 21 1026.3
20260508130731 58 0.0 0.0 0.00 0.00 0.00 21 1026.4
20260508124731 58 0.0 0.0 0.00 0.00 0.00 20 1026.5
20260508122731 57 0.0 0.0 0.00 0.00 0.00 22 1026.5
20260508120732 57 0.0 0.0 0.00 0.00 0.00 23 1026.6
20260508114731 56 0.0 0.0 0.00 0.00 0.00 22 1026.6
20260508112732 57 0.0 0.0 0.00 0.00 0.00 23 1026.6
20260508110732 56 0.0 0.0 0.00 0.00 0.00 25 1026.7
20260508104731 55 0.0 0.0 0.00 0.00 0.00 27 1026.6
20260508102731 56 0.0 0.0 0.00 0.00 0.00 30 1026.6
20260508100731 55 0.0 0.0 0.00 0.00 0.00 31 1026.6
20260508094731 53 0.0 0.0 0.00 0.00 0.00 29 1026.5
20260508092731 54 0.0 0.0 0.00 0.00 0.00 33 1026.5
20260508090731 52 0.0 0.0 0.00 0.00 0.00 31 1026.5
20260508084731 53 0.0 0.0 0.00 0.00 0.00 33 1026.6